User: anonymous   Login
Location: Unspecified
(0.0000°N, 0.0000°E)
Time: 10:40:00
(UTC+02:00)
Language:

CZ-4B DEB - Orbit

View from above orbital plane
View from above orbital plane
View from above satellite
View from above satellite

Ground track
Ground track

The orbit data is extracted from the following two-line orbital elements,

1 33411U 08053D   16274.66178173  .00027377  00000-0  54143-3 0  9993
2 33411  97.4423 307.8430 0005969 158.4524 201.6978 15.47065175436058
Epoch (UTC): 30 September 2016 15:52:57
Eccentricity: 0.0005969
inclination: 97.4423°
perigee height: 421 km
apogee height: 429 km
right ascension of ascending node: 307.8430°
argument of perigee: 158.4524°
revolutions per day: 15.47065175
mean anomaly at epoch: 201.6978°
orbit number at epoch: 43605

The dashed part of the orbit path shows where the satellite is in the earth's shadow,  

DLR